TimeMDT,TemperatureF,Dew PointF,Humidity,Sea Level PressureIn,VisibilityMPH,Wind Direction,Wind SpeedMPH,Gust SpeedMPH,PrecipitationIn,Events,Conditions,WindDirDegrees,DateUTC
12:53 AM,28.0,21.0,75,29.68,10.0,NNE,9.2,-,N/A,,Partly Cloudy,30,2014-03-27 06:53:00
1:53 AM,26.1,19.9,78,29.69,10.0,NE,5.8,-,N/A,,Scattered Clouds,40,2014-03-27 07:53:00
2:53 AM,26.1,19.9,78,29.70,10.0,NNE,6.9,-,N/A,,Scattered Clouds,20,2014-03-27 08:53:00
3:53 AM,25.0,19.0,78,29.72,10.0,North,5.8,-,N/A,,Clear,10,2014-03-27 09:53:00
4:53 AM,24.1,19.0,81,29.73,10.0,NNE,8.1,-,N/A,,Clear,30,2014-03-27 10:53:00
5:53 AM,24.1,19.0,81,29.75,10.0,ENE,9.2,-,N/A,,Clear,60,2014-03-27 11:53:00
6:53 AM,21.9,18.0,85,29.79,10.0,NNE,8.1,-,N/A,,Mostly Cloudy,20,2014-03-27 12:53:00
7:53 AM,24.1,19.0,81,29.82,10.0,NNE,13.8,-,N/A,,Scattered Clouds,30,2014-03-27 13:53:00
8:53 AM,26.1,19.9,78,29.83,10.0,NE,10.4,-,N/A,,Clear,50,2014-03-27 14:53:00
9:53 AM,28.0,19.9,72,29.84,10.0,NE,8.1,-,N/A,,Clear,50,2014-03-27 15:53:00
10:53 AM,33.1,19.9,59,29.84,10.0,NE,4.6,-,N/A,,Clear,50,2014-03-27 16:53:00
11:53 AM,34.0,19.9,56,29.83,10.0,East,3.5,-,N/A,,Clear,80,2014-03-27 17:53:00
12:53 PM,37.9,21.0,51,29.81,10.0,Variable,5.8,-,N/A,,Clear,0,2014-03-27 18:53:00
1:53 PM,41.0,21.9,47,29.80,10.0,East,9.2,-,N/A,,Clear,100,2014-03-27 19:53:00
2:53 PM,42.1,23.0,47,29.78,10.0,SE,10.4,-,N/A,,Clear,140,2014-03-27 20:53:00
3:53 PM,43.0,23.0,45,29.77,10.0,East,8.1,-,N/A,,Clear,100,2014-03-27 21:53:00
4:53 PM,44.1,23.0,43,29.75,10.0,ESE,10.4,-,N/A,,Clear,120,2014-03-27 22:53:00
5:53 PM,43.0,23.0,45,29.76,10.0,ESE,9.2,-,N/A,,Clear,110,2014-03-27 23:53:00
6:53 PM,42.1,21.9,45,29.78,10.0,East,9.2,-,N/A,,Clear,80,2014-03-28 00:53:00
7:53 PM,39.9,23.0,51,29.79,10.0,East,9.2,-,N/A,,Scattered Clouds,90,2014-03-28 01:53:00
8:53 PM,37.9,21.9,53,29.81,10.0,East,10.4,-,N/A,,Overcast,90,2014-03-28 02:53:00
9:53 PM,37.0,21.9,54,29.82,10.0,East,8.1,-,N/A,,Overcast,80,2014-03-28 03:53:00
10:53 PM,36.0,23.0,59,29.83,10.0,ESE,4.6,-,N/A,,Overcast,110,2014-03-28 04:53:00
11:53 PM,35.1,23.0,61,29.84,10.0,SE,9.2,-,N/A,,Overcast,130,2014-03-28 05:53:00